Showing default

XINGYUN-2 02, 45603

Orbit data source: Space-Track

XINGYUN-2 02, 45603 is a payload satellite owned by Xingyun (CN) in SSO that was launched on Tue, 12 May 2020 UTC via a KUAIZHOU-1A launch vehicle from the Jiuquan Satellite Launch Center, China (JSC). Payloads include a variety of satellites, spacecraft, and rockets equipped with specific instruments for various scientific and technological missions. These include communications satellites like Starlink; space stations such as the ISS; scientific satellites like the Hubble; Earth observation satellites from companies like Planet Labs, Umbra, and HawkEye 360; GPS; miniature CubeSats for education and research; and military/defense satellites.

Loading next visibility...
XINGYUN-2 02 details
Identifier
45603, 2020-028B
Orbit
SSO
Last TLE update4 hours ago
Origin
Flag of CNXingyun (CN / PRC)
ManufacturerSanjiang
MissionOperational Commercial Communications
Bus & MotorXINGYUN, Unknown motor
Mass93 kg wet, ~85 kg dry
Launch date (UTC)
2020-05-12 (5 years ago)
Launch vehicle
KUAIZHOU-1A
Launch site
Jiuquan Satellite Launch Center, China (JSC)
Object type
Payload
Rocket body
Debris
Shape & HBRBox, Unknown HBR
Radar Cross Section0.569 m², Medium (>0.1 m² and < 1m²)

Expand to show TLE details & history

TLE from 4 hours ago
0 XINGYUN-2 02
1 45603U 20028B   24361.46678409  .00005006  00000-0  33048-3 0  9992
2 45603  97.5118   7.1463 0010786 325.9247  34.1288 15.07830698253694
Epoch: 2024-12-26T11:12Z
Definitive object data (Epoch: 2024-12-26T11:12:10.145Z)
Latitude0.00002°
Longitude103.65826°
Altitude539.723 km
Speed7.596 km/s
True Right ascension00h 28m 35s
True Declination0° 00' 00"
Sunlit
Object was in daylight at TLE epoch
Visualization TLE readout
Latitude-43.86275°
Longitude-83.41226°
Altitude561.226 km
Speed7.579 km/s
Apparent Right ascension07h 29m 26s
Apparent Declination-68° 32' 23"
Sunlit
Object is in daylight
Visualization observer readout
Local Sidereal Time14:44:47
Azimuth208.489° SW
Elevation-43.454°
Doppler factor1
Orbital elements
Apogee altitude547.278 km
Perigee altitude532.355 km
Semi-major axis6,917.954 km
Eccentricity0.0010786
Inclination97.5118°
RAAN7.1463°
Arg. of periapsis325.9247°
True anomaly34.19822°
Mean anomaly34.1288°
Eccentric anomaly34.1635°
Mean motion3.77204 °/min
BSTAR0.00033048
Orbital period95.44 mins
Loading maneuver chart data...
Loading historical data...
Loading historical data...
Loading historical data...
Loading historical data...
Loading historical data...
Loading historical data...
Loading historical data...
Other satellites on launch #28 in the year 2020 (2020-05-12 UTC)

XINGYUN-2 02 Visibility forecast

Observer location: undefined°, undefined

Span
Click to sort rows by Start time (UTC) header in descending order
Start Az.
Max El. time (UTC)
Max El. Az.
Max El.
End time (UTC)
End Az.
6 mins2024-12-27 00:04:47.333Z132.534° SE2024-12-27 00:07:47.333Z71.637° E28.497°2024-12-27 00:10:47.333Z11.115° NNE
6 mins2024-12-27 13:15:47.333Z25.296° NE2024-12-27 13:18:47.333Z132.018° SE39.267°2024-12-27 13:21:47.333Z179.462° S
|